Location: ??
(35.5090°N, 139.6783°E)
Time: 19:27:34
(UTC+00:00)

ATLAS CENTAUR R/B - Pass Details

Date: 08 November 2025
Orbit: 343 x 423 km, 64.6° (Epoch: 08 December)

Event Time Altitude Azimuth Distance (km) Brightness Sun altitude
Rises 09:06:18 0° 235° (SW) 2,412 5.7 -17.8°
Reaches altitude 10° 09:08:37 10° 249° (WSW) 1,560 4.8 -18.3°
Maximum altitude 09:11:33 25° 306° (NW) 948 3.0 -18.9°
Enters shadow 09:14:19 11° 2° (N) 1,516 3.5 -19.5°
